OK,82,51,993,82,2014-10-01T01:40:00,1,28072763,183091
OK,82,51,993,82,2014-10-01T01:45:00,0,28073210,183091
OK,82,51,993,82,2014-10-01T01:50:00,0,28073658,183091
OK,82,51,993,82,2014-10-01T01:55:00,0,28073976,183091
OK,82,51,993,82,2014-10-01T02:00:00,0,28074425,183091
OK,82,51,993,82,2014-10-01T02:05:00,0,28074865,183091
OK,85,49,993,85,2014-10-01T02:10:00,1,28075314,183091
OK,85,49,993,85,2014-10-01T02:15:00,1,28075763,183091
OK,85,49,993,85,2014-10-01T02:20:00,0,28076146,183091
OK,78,53,993,78,2014-10-01T02:25:00,1,28076595,183091
OK,69,60,993,69,2014-10-01T02:30:00,2,28077044,183091
OK,60,70,993,60,2014-10-01T02:35:00,1,28077493,183091
OK,60,70,993,60,2014-10-01T02:40:00,0,28077896,183091
OK,84,50,993,84,2014-10-01T02:45:00,1,28078345,183091
OK,84,50,993,84,2014-10-01T02:50:00,0,28078790,183091
OK,113,37,993,113,2014-10-01T02:55:00,1,28079239,183091
OK,113,37,993,113,2014-10-01T03:00:00,1,28079681,183091
OK,113,37,993,113,2014-10-01T03:05:00,0,28080130,183091
OK,113,37,993,113,2014-10-01T03:10:00,0,28080464,183091
OK,72,58,993,72,2014-10-01T03:15:00,1,28080913,183091
OK,72,58,993,72,2014-10-01T03:20:00,1,28081362,183091
OK,94,44,993,94,2014-10-01T03:25:00,1,28081809,183091
OK,95,44,993,95,2014-10-01T03:30:00,2,28082258,183091
OK,86,48,993,86,2014-10-01T03:35:00,4,28082691,183091
OK,86,48,993,86,2014-10-01T03:40:00,3,28083123,183091
OK,106,39,993,106,2014-10-01T03:45:00,2,28083572,183091
OK,106,39,993,106,2014-10-01T03:50:00,2,28084021,183091
OK,91,46,993,91,2014-10-01T03:55:00,1,28084462,183091
OK,99,42,993,99,2014-10-01T04:00:00,2,28084887,183091
OK,108,38,993,108,2014-10-01T04:05:00,1,28085336,183091
OK,80,52,993,80,2014-10-01T04:10:00,1,28085781,183091
OK,80,52,993,80,2014-10-01T04:15:00,0,28086230,183091
OK,111,37,993,111,2014-10-01T04:20:00,1,28086672,183091
OK,107,39,993,107,2014-10-01T04:25:00,4,28087121,183091
OK,102,41,993,102,2014-10-01T04:30:00,4,28087566,183091
OK,102,41,993,102,2014-10-01T04:35:00,2,28088015,183091
OK,93,45,993,93,2014-10-01T04:40:00,4,28088439,183091
OK,99,42,993,99,2014-10-01T04:45:00,12,28088888,183091
OK,113,37,993,113,2014-10-01T04:50:00,19,28089318,183091
OK,107,39,993,107,2014-10-01T04:55:00,17,28089767,183091
OK,111,37,993,111,2014-10-01T05:00:00,9,28090216,183091
OK,113,37,993,113,2014-10-01T05:05:00,9,28090560,183091
OK,127,33,993,127,2014-10-01T05:10:00,17,28091009,183091
OK,102,41,993,102,2014-10-01T05:15:00,17,28091458,183091
OK,108,38,993,108,2014-10-01T05:20:00,9,28091875,183091
OK,125,33,993,125,2014-10-01T05:25:00,9,28092324,183091
OK,114,36,993,114,2014-10-01T05:30:00,10,28092768,183091
OK,128,32,993,128,2014-10-01T05:35:00,18,28093209,183091
OK,136,30,993,136,2014-10-01T05:40:00,22,28093640,183091
OK,146,28,993,146,2014-10-01T05:45:00,21,28094089,183091
OK,137,30,993,137,2014-10-01T05:50:00,20,28094500,183091
OK,133,31,993,133,2014-10-01T05:55:00,20,28094945,183091
OK,142,29,993,142,2014-10-01T06:00:00,21,28095392,183091
OK,143,29,993,143,2014-10-01T06:05:00,13,28095841,183091
OK,144,29,993,144,2014-10-01T06:10:00,0,28096254,183091
OK,147,28,993,147,2014-10-01T06:15:00,20,28096703,183091
OK,147,28,993,147,2014-10-01T06:20:00,22,28097137,183091
OK,117,35,993,117,2014-10-01T06:25:00,16,28097586,183091
OK,109,38,993,109,2014-10-01T06:30:00,15,28098035,183091
OK,128,32,993,128,2014-10-01T06:35:00,16,28098472,183091
OK,132,31,993,132,2014-10-01T06:40:00,21,28098916,183091
OK,130,32,993,130,2014-10-01T06:45:00,25,28099364,183091
OK,118,35,993,118,2014-10-01T06:50:00,21,28099707,183091
OK,119,35,993,119,2014-10-01T06:55:00,21,28100156,183091
OK,120,35,993,120,2014-10-01T07:00:00,14,28100463,183091
OK,116,36,993,116,2014-10-01T07:05:00,11,28100912,183091
OK,110,38,993,110,2014-10-01T07:10:00,9,28101283,183091
OK,110,38,993,110,2014-10-01T07:15:00,10,28101732,183091
OK,104,40,993,104,2014-10-01T07:20:00,6,28102168,183091
OK,123,34,993,123,2014-10-01T07:25:00,9,28102617,183091
OK,112,37,993,112,2014-10-01T07:30:00,10,28103045,183091
OK,134,31,993,134,2014-10-01T07:35:00,10,28103491,183091
OK,130,32,993,130,2014-10-01T07:40:00,11,28103936,183091
OK,105,40,993,105,2014-10-01T07:45:00,14,28104381,183091
OK,107,39,993,107,2014-10-01T07:50:00,14,28104822,183091
OK,115,36,993,115,2014-10-01T07:55:00,9,28105267,183091
OK,110,38,993,110,2014-10-01T08:00:00,12,28105707,183091
OK,108,38,993,108,2014-10-01T08:05:00,11,28106156,183091
OK,105,40,993,105,2014-10-01T08:10:00,10,28106593,183091
OK,104,40,993,104,2014-10-01T08:15:00,11,28106999,183091
OK,98,42,993,98,2014-10-01T08:20:00,7,28107431,183091
OK,90,46,993,90,2014-10-01T08:25:00,8,28107880,183091
OK,92,45,993,92,2014-10-01T08:30:00,5,28108319,183091
OK,109,38,993,109,2014-10-01T08:35:00,6,28108768,183091
OK,114,36,993,114,2014-10-01T08:40:00,8,28109196,183091
OK,106,39,993,106,2014-10-01T08:45:00,9,28109645,183091
OK,111,37,993,111,2014-10-01T08:50:00,16,28109988,183091
OK,111,37,993,111,2014-10-01T08:55:00,10,28110437,183091
OK,93,45,993,93,2014-10-01T09:00:00,2,28110860,183091
OK,104,40,993,104,2014-10-01T09:05:00,2,28111309,183091
OK,92,45,993,92,2014-10-01T09:10:00,7,28111738,183091
OK,91,46,993,91,2014-10-01T09:15:00,7,28112187,183091
OK,88,47,993,88,2014-10-01T09:20:00,1,28112528,183091
OK,103,40,993,103,2014-10-01T09:25:00,3,28112977,183091
OK,129,32,993,129,2014-10-01T09:30:00,3,28113401,183091
OK,134,31,993,134,2014-10-01T09:35:00,6,28113850,183091
OK,133,31,993,133,2014-10-01T09:40:00,9,28114282,183091
OK,102,41,993,102,2014-10-01T09:45:00,9,28114731,183091
OK,107,39,993,107,2014-10-01T09:50:00,11,28115085,183091
OK,107,39,993,107,2014-10-01T09:55:00,7,28115534,183091
OK,110,38,993,110,2014-10-01T10:00:00,8,28115946,183091
OK,106,39,993,106,2014-10-01T10:05:00,6,28116395,183091
OK,113,37,993,113,2014-10-01T10:10:00,8,28116803,183091
OK,93,45,993,93,2014-10-01T10:15:00,6,28117252,183091
OK,106,39,993,106,2014-10-01T10:20:00,6,28117677,183091
OK,100,42,993,100,2014-10-01T10:25:00,6,28118126,183091
OK,93,45,993,93,2014-10-01T10:30:00,10,28118571,183091
OK,93,45,993,93,2014-10-01T10:35:00,12,28119018,183091
OK,104,40,993,104,2014-10-01T10:40:00,10,28119462,183091
OK,102,41,993,102,2014-10-01T10:45:00,11,28119910,183091
OK,135,31,993,135,2014-10-01T10:50:00,9,28120358,183091
OK,106,39,993,106,2014-10-01T10:55:00,9,28120807,183091
OK,111,37,993,111,2014-10-01T11:00:00,10,28121190,183091
OK,97,43,993,97,2014-10-01T11:05:00,12,28121639,183091
OK,102,41,993,102,2014-10-01T11:10:00,18,28122077,183091
OK,102,41,993,102,2014-10-01T11:15:00,17,28122526,183091
OK,88,47,993,88,2014-10-01T11:20:00,15,28122967,183091
OK,115,36,993,115,2014-10-01T11:25:00,15,28123416,183091
OK,115,36,993,115,2014-10-01T11:30:00,18,28123848,183091
OK,111,37,993,111,2014-10-01T11:35:00,12,28124297,183091
OK,109,38,993,109,2014-10-01T11:40:00,9,28124699,183091
OK,98,42,993,98,2014-10-01T11:45:00,11,28125148,183091
OK,105,40,993,105,2014-10-01T11:50:00,12,28125577,183091
OK,126,33,993,126,2014-10-01T11:55:00,11,28126026,183091
OK,124,33,993,124,2014-10-01T12:00:00,11,28126378,183091
OK,111,37,993,111,2014-10-01T12:05:00,11,28126827,183091
OK,102,41,993,102,2014-10-01T12:10:00,6,28127276,183091
OK,110,38,993,110,2014-10-01T12:15:00,4,28127725,183091
OK,107,39,993,107,2014-10-01T12:20:00,8,28128153,183091
OK,110,38,993,110,2014-10-01T12:25:00,8,28128602,183091
OK,111,37,993,111,2014-10-01T12:30:00,6,28129037,183091
OK,107,39,993,107,2014-10-01T12:35:00,8,28129486,183091
OK,106,39,993,106,2014-10-01T12:40:00,9,28129920,183091
OK,100,42,993,100,2014-10-01T12:45:00,8,28130369,183091
OK,87,48,993,87,2014-10-01T12:50:00,6,28130797,183091
OK,107,39,993,107,2014-10-01T12:55:00,6,28131246,183091
OK,105,40,993,105,2014-10-01T13:00:00,10,28131683,183091
OK,106,39,993,106,2014-10-01T13:05:00,5,28132132,183091
OK,107,39,993,107,2014-10-01T13:10:00,5,28132570,183091
OK,105,40,993,105,2014-10-01T13:15:00,11,28133017,183091
OK,118,35,993,118,2014-10-01T13:20:00,14,28133455,183091
OK,107,39,993,107,2014-10-01T13:25:00,13,28133904,183091
OK,111,37,993,111,2014-10-01T13:30:00,15,28134343,183091
OK,113,37,993,113,2014-10-01T13:35:00,5,28134792,183091
OK,104,40,993,104,2014-10-01T13:40:00,3,28135211,183091
OK,94,44,993,94,2014-10-01T13:45:00,8,28135660,183091
OK,102,41,993,102,2014-10-01T13:50:00,6,28136097,183091
OK,109,38,993,109,2014-10-01T13:55:00,8,28136546,183091
OK,110,38,993,110,2014-10-01T14:00:00,10,28136986,183091
OK,113,37,993,113,2014-10-01T14:05:00,9,28137435,183091
OK,114,36,993,114,2014-10-01T14:10:00,10,28137869,183091
OK,112,37,993,112,2014-10-01T14:15:00,10,28138318,183091
OK,112,37,993,112,2014-10-01T14:20:00,6,28138746,183091
OK,139,30,993,139,2014-10-01T14:25:00,8,28139195,183091
OK,134,31,993,134,2014-10-01T14:30:00,13,28139606,183091
OK,129,32,993,129,2014-10-01T14:35:00,9,28140055,183091
OK,123,34,993,123,2014-10-01T14:40:00,7,28140497,183091
OK,113,37,993,113,2014-10-01T14:45:00,16,28140946,183091
OK,114,36,993,114,2014-10-01T14:50:00,17,28141372,183091
OK,120,35,993,120,2014-10-01T14:55:00,12,28141821,183091
OK,120,35,993,120,2014-10-01T15:00:00,11,28142249,183091
OK,95,44,993,95,2014-10-01T15:05:00,9,28142698,183091
OK,105,40,993,105,2014-10-01T15:10:00,7,28143125,183091
OK,119,35,993,119,2014-10-01T15:15:00,9,28143574,183091
OK,115,36,993,115,2014-10-01T15:20:00,9,28144022,183091
OK,107,39,993,107,2014-10-01T15:25:00,8,28144471,183091
OK,109,38,993,109,2014-10-01T15:30:00,12,28144892,183091
OK,110,38,993,110,2014-10-01T15:35:00,12,28145306,183091
OK,118,35,993,118,2014-10-01T15:40:00,8,28145755,183091
OK,119,35,993,119,2014-10-01T15:45:00,8,28146204,183091
OK,104,40,993,104,2014-10-01T15:50:00,4,28146653,183091
OK,107,39,993,107,2014-10-01T15:55:00,7,28147061,183091
OK,106,39,993,106,2014-10-01T16:00:00,9,28147505,183091
OK,87,48,993,87,2014-10-01T16:05:00,5,28147954,183091
OK,90,46,993,90,2014-10-01T16:10:00,5,28148355,183091
OK,111,37,993,111,2014-10-01T16:15:00,8,28148804,183091
OK,111,37,993,111,2014-10-01T16:20:00,12,28149243,183091
OK,104,40,993,104,2014-10-01T16:25:00,8,28149692,183091
OK,103,40,993,103,2014-10-01T16:30:00,5,28150118,183091
OK,121,34,993,121,2014-10-01T16:35:00,5,28150567,183091
OK,97,43,993,97,2014-10-01T16:40:00,6,28150985,183091
OK,99,42,993,99,2014-10-01T16:45:00,7,28151434,183091
OK,116,36,993,116,2014-10-01T16:50:00,4,28151883,183091
OK,105,40,993,105,2014-10-01T17:00:00,6,28152332,183091
OK,112,37,993,112,2014-10-01T17:05:00,4,28152778,183091
OK,127,33,993,127,2014-10-01T17:10:00,5,28153225,183091
OK,120,35,993,120,2014-10-01T17:15:00,7,28153674,183091
OK,119,35,993,119,2014-10-01T17:20:00,6,28154084,183091
OK,110,38,993,110,2014-10-01T17:25:00,3,28154533,183091
OK,107,39,993,107,2014-10-01T17:30:00,2,28154975,183091
OK,83,50,993,83,2014-10-01T17:35:00,2,28155423,183091
OK,96,43,993,96,2014-10-01T17:40:00,3,28155841,183091
OK,97,43,993,97,2014-10-01T17:45:00,3,28156290,183091
OK,99,42,993,99,2014-10-01T17:50:00,4,28156738,183091
OK,103,40,993,103,2014-10-01T17:55:00,3,28157177,183091
OK,105,40,993,105,2014-10-01T18:00:00,1,28157607,183091
OK,105,40,993,105,2014-10-01T18:05:00,0,28158055,183091
OK,89,47,993,89,2014-10-01T18:10:00,2,28158499,183091
OK,92,45,993,92,2014-10-01T18:15:00,1,28158945,183091
OK,131,32,993,131,2014-10-01T18:20:00,1,28159391,183091
OK,81,51,993,81,2014-10-01T18:25:00,1,28159726,183091
OK,87,48,993,87,2014-10-01T18:30:00,3,28160175,183091
OK,119,35,993,119,2014-10-01T18:35:00,2,28160624,183091
OK,104,40,993,104,2014-10-01T18:40:00,3,28161062,183091
OK,89,47,993,89,2014-10-01T18:45:00,1,28161511,183091
OK,83,50,993,83,2014-10-01T18:50:00,2,28161928,183091
OK,91,46,993,91,2014-10-01T18:55:00,4,28162377,183091
OK,100,42,993,100,2014-10-01T19:00:00,4,28162771,183091
OK,100,42,993,100,2014-10-01T19:05:00,2,28163210,183091
OK,90,46,993,90,2014-10-01T19:10:00,2,28163658,183091
OK,84,50,993,84,2014-10-01T19:15:00,2,28164107,183091
OK,80,52,993,80,2014-10-01T19:20:00,1,28164538,183091
OK,96,43,993,96,2014-10-01T19:25:00,2,28164987,183091
OK,111,37,993,111,2014-10-01T19:30:00,2,28165412,183091
OK,111,37,993,111,2014-10-01T19:35:00,4,28165860,183091
OK,94,44,993,94,2014-10-01T19:40:00,3,28166301,183091
OK,94,44,993,94,2014-10-01T19:45:00,1,28166663,183091
OK,94,44,993,94,2014-10-01T19:50:00,0,28167112,183091
OK,107,39,993,107,2014-10-01T19:55:00,1,28167541,183091
OK,107,39,993,107,2014-10-01T20:00:00,3,28167974,183091
OK,154,27,993,154,2014-10-01T20:05:00,1,28168423,183091
OK,134,31,993,134,2014-10-01T20:10:00,2,28168868,183091
OK,118,35,993,118,2014-10-01T20:15:00,2,28169317,183091
OK,116,36,993,116,2014-10-01T20:20:00,3,28169765,183091
OK,123,34,993,123,2014-10-01T20:25:00,2,28170191,183091
OK,118,35,993,118,2014-10-01T20:30:00,2,28170636,183091
OK,125,33,993,125,2014-10-01T20:35:00,1,28171084,183091
OK,125,33,993,125,2014-10-01T20:40:00,1,28171521,183091
OK,82,51,993,82,2014-10-01T20:45:00,1,28171967,183091
OK,82,51,993,82,2014-10-01T20:50:00,1,28172415,183091
OK,101,41,993,101,2014-10-01T20:55:00,4,28172861,183091
OK,103,40,993,103,2014-10-01T21:00:00,3,28173307,183091
OK,98,42,993,98,2014-10-01T21:05:00,1,28173756,183091
OK,98,42,993,98,2014-10-01T21:10:00,0,28174197,183091
OK,98,42,993,98,2014-10-01T21:15:00,0,28174646,183091
OK,98,42,993,98,2014-10-01T21:20:00,0,28175072,183091
OK,98,42,993,98,2014-10-01T21:25:00,0,28175468,183091
OK,98,42,993,98,2014-10-01T21:30:00,0,28175917,183091
OK,98,42,993,98,2014-10-01T21:35:00,0,28176366,183091
OK,100,42,993,100,2014-10-01T21:40:00,1,28176815,183091
OK,100,42,993,100,2014-10-01T21:45:00,1,28177171,183091
OK,129,32,993,129,2014-10-01T21:50:00,1,28177611,183091
OK,129,32,993,129,2014-10-01T21:55:00,0,28178057,183091
OK,129,32,993,129,2014-10-01T22:00:00,0,28178506,183091
OK,129,32,993,129,2014-10-01T22:05:00,0,28178953,183091
OK,87,48,993,87,2014-10-01T22:10:00,1,28179387,183091
OK,87,48,993,87,2014-10-01T22:15:00,0,28179830,183091
OK,87,48,993,87,2014-10-01T22:20:00,0,28180277,183091
OK,87,48,993,87,2014-10-01T22:25:00,0,28180675,183091
OK,87,48,993,87,2014-10-01T22:30:00,0,28181124,183091
OK,87,48,993,87,2014-10-01T22:35:00,0,28181548,183091
OK,87,48,993,87,2014-10-01T22:40:00,0,28181996,183091
OK,87,48,993,87,2014-10-01T22:45:00,0,28182443,183091
OK,87,48,993,87,2014-10-01T22:50:00,0,28182892,183091
OK,87,48,993,87,2014-10-01T22:55:00,0,28183309,183091
OK,87,48,993,87,2014-10-01T23:00:00,0,28183742,183091
OK,87,48,993,87,2014-10-01T23:05:00,0,28184187,183091
OK,107,39,993,107,2014-10-01T23:10:00,1,28184636,183091
OK,107,39,993,107,2014-10-01T23:15:00,1,28185071,183091
OK,107,39,993,107,2014-10-01T23:20:00,0,28185519,183091
OK,107,39,993,107,2014-10-01T23:25:00,0,28185950,183091
OK,107,39,993,107,2014-10-01T23:30:00,0,28186342,183091
OK,107,39,993,107,2014-10-01T23:40:00,0,28187189,183091
OK,107,39,993,107,2014-10-01T23:55:00,0,28188521,183091
OK,107,39,993,107,2014-10-02T00:05:00,0,28189406,183091
OK,107,39,993,107,2014-10-02T00:10:00,0,28189828,183091
OK,107,39,993,107,2014-10-02T00:15:00,0,28190277,183091
OK,107,39,993,107,2014-10-02T00:20:00,0,28190630,183091
OK,107,39,993,107,2014-10-02T00:30:00,0,28191528,183091
OK,107,39,993,107,2014-10-02T00:35:00,0,28191834,183091
OK,107,39,993,107,2014-10-02T00:40:00,0,28192283,183091
OK,107,39,993,107,2014-10-02T00:45:00,0,28192716,183091
OK,107,39,993,107,2014-10-02T00:50:00,0,28193160,183091
OK,107,39,993,107,2014-10-02T00:55:00,0,28193527,183091
OK,107,39,993,107,2014-10-02T01:05:00,0,28194425,183091
OK,107,39,993,107,2014-10-02T01:10:00,0,28194874,183091
OK,107,39,993,107,2014-10-02T01:15:00,0,28195110,183091
OK,107,39,993,107,2014-10-02T01:25:00,0,28196008,183091
OK,107,39,993,107,2014-10-02T01:30:00,0,28196292,183091
OK,107,39,993,107,2014-10-02T01:35:00,0,28196741,183091
OK,107,39,993,107,2014-10-02T01:40:00,0,28197164,183091
OK,107,39,993,107,2014-10-02T01:45:00,0,28197613,183091
OK,107,39,993,107,2014-10-02T01:50:00,0,28198061,183091
OK,107,39,993,107,2014-10-02T01:55:00,0,28198509,183091
OK,107,39,993,107,2014-10-02T02:00:00,0,28198958,183091
OK,107,39,993,107,2014-10-02T02:05:00,0,28199330,183091
OK,107,39,993,107,2014-10-02T02:10:00,0,28199772,183091
OK,77,54,993,77,2014-10-02T02:15:00,1,28200214,183091
OK,77,54,993,77,2014-10-02T02:20:00,0,28200657,183091
OK,77,54,993,77,2014-10-02T02:25:00,0,28201106,183091
OK,88,47,993,88,2014-10-02T02:30:00,1,28201537,183091
OK,88,47,993,88,2014-10-02T02:45:00,0,28202435,183091
OK,88,47,993,88,2014-10-02T02:50:00,0,28202877,183091
OK,88,47,993,88,2014-10-02T02:55:00,0,28203325,183091
OK,88,47,993,88,2014-10-02T03:00:00,0,28203760,183091
OK,88,47,993,88,2014-10-02T03:10:00,0,28204209,183091
OK,88,47,993,88,2014-10-02T03:25:00,0,28204658,183091
OK,88,47,993,88,2014-10-02T03:30:00,0,28205107,183091
OK,82,51,993,82,2014-10-02T03:35:00,2,28205535,183091
OK,82,51,993,82,2014-10-02T03:40:00,0,28205982,183091
OK,80,52,993,80,2014-10-02T03:45:00,1,28206365,183091
OK,80,52,993,80,2014-10-02T03:55:00,0,28207263,183091
OK,80,52,993,80,2014-10-02T04:00:00,0,28207682,183091
OK,80,52,993,80,2014-10-02T04:05:00,0,28208131,183091
OK,80,52,993,80,2014-10-02T04:10:00,0,28208558,183091
OK,80,52,993,80,2014-10-02T04:15:00,0,28209007,183091
OK,118,35,993,118,2014-10-02T04:20:00,1,28209445,183091
OK,118,35,993,118,2014-10-02T04:25:00,0,28209894,183091
OK,108,38,993,108,2014-10-02T04:30:00,3,28210317,183091
OK,112,37,993,112,2014-10-02T04:35:00,2,28210766,183091
OK,83,50,993,83,2014-10-02T04:40:00,7,28211191,183091
OK,81,51,993,81,2014-10-02T04:45:00,0,28211635,183091
OK,81,51,993,81,2014-10-02T04:50:00,0,28212013,183091
OK,125,33,993,125,2014-10-02T04:55:00,7,28212462,183091
OK,98,42,993,98,2014-10-02T05:00:00,4,28212891,183091
OK,100,42,993,100,2014-10-02T05:05:00,13,28213340,183091
OK,208,20,993,208,2014-10-02T05:10:00,1,28213778,183091
OK,110,38,993,110,2014-10-02T05:15:00,4,28214227,183091
OK,117,35,993,117,2014-10-02T05:20:00,0,28214640,183091
OK,107,39,993,107,2014-10-02T05:25:00,12,28215089,183091
OK,121,34,993,121,2014-10-02T05:30:00,2,28215505,183091
OK,121,34,993,121,2014-10-02T05:35:00,0,28215954,183091
OK,122,34,993,122,2014-10-02T05:40:00,15,28216293,183091
OK,130,32,993,130,2014-10-02T05:45:00,8,28216733,183091
OK,139,30,993,139,2014-10-02T05:50:00,0,28217180,183091
OK,151,27,993,151,2014-10-02T05:55:00,15,28217629,183091
OK,161,26,993,161,2014-10-02T06:00:00,5,28218068,183091
OK,158,26,993,158,2014-10-02T06:05:00,0,28218517,183091
OK,158,26,993,158,2014-10-02T06:10:00,0,28218937,183091
OK,162,25,993,162,2014-10-02T06:15:00,18,28219386,183091
OK,135,31,993,135,2014-10-02T06:20:00,10,28219759,183091
OK,120,35,993,120,2014-10-02T06:25:00,11,28220208,183091
OK,110,38,993,110,2014-10-02T06:30:00,16,28220642,183091
OK,136,30,993,136,2014-10-02T06:35:00,17,28221091,183091
OK,133,31,993,133,2014-10-02T06:40:00,21,28221472,183091
OK,131,32,993,131,2014-10-02T06:45:00,13,28221758,183091
OK,121,34,993,121,2014-10-02T07:00:00,19,28222352,183091
OK,109,38,993,109,2014-10-02T07:05:00,16,28222801,183091
OK,93,45,993,93,2014-10-02T07:10:00,7,28223232,183091
OK,95,44,993,95,2014-10-02T07:15:00,0,28223667,183091
OK,95,44,993,95,2014-10-02T07:20:00,0,28224115,183091
OK,113,37,993,113,2014-10-02T07:25:00,9,28224470,183091
OK,132,31,993,132,2014-10-02T07:30:00,1,28224919,183091
OK,125,33,993,125,2014-10-02T07:35:00,7,28225368,183091
OK,118,35,993,118,2014-10-02T07:40:00,4,28225690,183091
OK,112,37,993,112,2014-10-02T07:50:00,13,28226580,183091
OK,120,35,993,120,2014-10-02T07:55:00,7,28227029,183091
OK,104,40,993,104,2014-10-02T08:00:00,1,28227444,183091
OK,108,38,993,108,2014-10-02T08:05:00,10,28227893,183091
OK,106,39,993,106,2014-10-02T08:10:00,2,28228252,183091
OK,92,45,993,92,2014-10-02T08:15:00,4,28228701,183091
OK,109,38,993,109,2014-10-02T08:20:00,1,28229111,183091
OK,114,36,993,114,2014-10-02T08:25:00,7,28229560,183091
OK,154,27,993,154,2014-10-02T08:30:00,1,28229910,183091
OK,93,45,993,93,2014-10-02T08:35:00,6,28230359,183091
OK,95,44,993,95,2014-10-02T08:40:00,0,28230725,183091
OK,95,44,993,95,2014-10-02T08:45:00,0,28231174,183091
OK,111,37,993,111,2014-10-02T08:50:00,9,28231597,183091
OK,101,41,993,101,2014-10-02T08:55:00,5,28232046,183091
OK,134,31,993,134,2014-10-02T09:00:00,10,28232388,183091
OK,135,31,993,135,2014-10-02T09:10:00,0,28232837,183091
OK,112,37,993,112,2014-10-02T09:15:00,1,28233286,183091
OK,112,37,993,112,2014-10-02T09:20:00,0,28233710,183091
OK,111,37,993,111,2014-10-02T09:25:00,5,28234159,183091
OK,111,37,993,111,2014-10-02T09:30:00,3,28234492,183091
OK,124,33,993,124,2014-10-02T09:40:00,3,28235368,183091
OK,109,38,993,109,2014-10-02T09:45:00,6,28235817,183091
OK,109,38,993,109,2014-10-02T09:50:00,2,28236260,183091
OK,117,35,993,117,2014-10-02T09:55:00,10,28236707,183091
OK,143,29,993,143,2014-10-02T10:00:00,3,28237110,183091
OK,149,28,993,149,2014-10-02T10:05:00,0,28237558,183091
OK,133,31,993,133,2014-10-02T10:10:00,9,28238006,183091
OK,140,30,993,140,2014-10-02T10:15:00,3,28238453,183091
OK,115,36,993,115,2014-10-02T10:20:00,2,28238894,183091
OK,151,27,993,151,2014-10-02T10:25:00,4,28239343,183091
OK,145,28,993,145,2014-10-02T10:30:00,0,28239773,183091
OK,100,42,993,100,2014-10-02T10:35:00,9,28240222,183091
OK,146,28,993,146,2014-10-02T10:40:00,6,28240666,183091
OK,117,35,993,117,2014-10-02T10:45:00,6,28241115,183091
OK,92,45,993,92,2014-10-02T10:50:00,0,28241547,183091
OK,99,42,993,99,2014-10-02T10:55:00,5,28241995,183091
OK,102,41,993,102,2014-10-02T11:00:00,0,28242391,183091
OK,102,41,993,102,2014-10-02T11:05:00,0,28242840,183091
OK,121,34,993,121,2014-10-02T11:10:00,9,28243289,183091
OK,101,41,993,101,2014-10-02T11:15:00,2,28243614,183091
OK,102,41,993,102,2014-10-02T11:20:00,6,28244052,183091
OK,102,41,993,102,2014-10-02T11:25:00,3,28244481,183091
OK,100,42,993,100,2014-10-02T11:30:00,0,28244930,183091
OK,142,29,993,142,2014-10-02T11:35:00,5,28245379,183091
OK,116,36,993,116,2014-10-02T11:40:00,2,28245785,183091
OK,97,43,993,97,2014-10-02T11:45:00,0,28246234,183091
OK,100,42,993,100,2014-10-02T11:50:00,10,28246671,183091
OK,105,40,993,105,2014-10-02T11:55:00,16,28247120,183091
OK,111,37,993,111,2014-10-02T12:00:00,14,28247566,183091
OK,121,34,993,121,2014-10-02T12:05:00,2,28247996,183091
OK,135,31,993,135,2014-10-02T12:10:00,0,28248445,183091
OK,114,36,993,114,2014-10-02T12:15:00,8,28248892,183091
OK,114,36,993,114,2014-10-02T12:20:00,4,28249320,183091
OK,100,42,993,100,2014-10-02T12:25:00,4,28249764,183091
OK,101,41,993,101,2014-10-02T12:30:00,3,28250183,183091
OK,94,44,993,94,2014-10-02T12:35:00,6,28250581,183091
OK,112,37,993,112,2014-10-02T13:20:00,5,28251906,183091
OK,117,35,993,117,2014-10-02T13:30:00,11,28252490,183091
OK,134,31,993,134,2014-10-02T13:35:00,6,28252932,183091
OK,142,29,993,142,2014-10-02T13:40:00,0,28253349,183091
OK,97,43,993,97,2014-10-02T13:45:00,6,28253798,183091
OK,96,43,993,96,2014-10-02T13:50:00,5,28254203,183091
OK,108,38,993,108,2014-10-02T13:55:00,3,28254524,183091
OK,115,36,993,115,2014-10-02T14:10:00,7,28255101,183091
OK,129,32,993,129,2014-10-02T14:15:00,14,28255550,183091
OK,134,31,993,134,2014-10-02T14:20:00,9,28255978,183091
OK,128,32,993,128,2014-10-02T14:25:00,4,28256427,183091
OK,114,36,993,114,2014-10-02T14:30:00,8,28256855,183091
OK,124,33,993,124,2014-10-02T14:35:00,11,28257304,183091
OK,128,32,993,128,2014-10-02T14:40:00,9,28257745,183091
OK,128,32,993,128,2014-10-02T14:45:00,12,28258193,183091
OK,121,34,993,121,2014-10-02T14:50:00,7,28258626,183091
OK,114,36,993,114,2014-10-02T14:55:00,5,28259072,183091
OK,133,31,993,133,2014-10-02T15:00:00,5,28259521,183091
OK,118,35,993,118,2014-10-02T15:05:00,10,28259968,183091
OK,106,39,993,106,2014-10-02T15:10:00,10,28260401,183091
OK,108,38,993,108,2014-10-02T15:15:00,9,28260850,183091
OK,117,35,993,117,2014-10-02T15:20:00,5,28261290,183091